FALCON 9 DEB (47683 NORAD) Tracking and Keplerian Element Data
This shows tracking and keplerian element data for the satellite.
Feedback or suggestion? Click here.
Element | Value |
Catalog | 47683 |
Name | FALCON 9 DEB |
Epoch Orbit | 191 |
Epoch Day | 57.12540804 |
Epoch Year | 2021 |
RAAN | 51.5259 |
Inclination | 53.0494 |
Eccentricity | 0.0017159 |
Argument of Perigee | 247.0355 |
Mean Anonmoly | 112.8868 |
Mean Motion | 16.09001262 |
Decay Rate | 0.00469011 |
L1 | 1 47683U 21012BR 21057.12540804 .00469011 12044-3 50826-3 0 9992 |
L2 | 2 47683 53.0494 51.5259 0017159 247.0355 112.8868 16.09001262 1913 |
Live tracking and technical data element details for FALCON 9 DEB (NORAD 47683). FALCON 9 DEB can be tracked NOW for your location showing map with azimuth and elevation plus other details from your city location.
Track the satellite on the map from your city or location and see movement details for azimuth, elevation, latitude, longitude, range, height, and movement on the map or in text.
IsCatalogInMostPopularTable: catalog: 47683, numindb: 1
Update: records affected: 1
GetName: 47683 FALCON 9 DEB
Hit Count: updated at: Fri, 26 Feb 2021 10:31:12 GMT